{"data":{"norad_id":66412,"epoch":"2026-05-25T01:12:19.617984Z","epoch_age_seconds":67933,"freshness":"FRESH","line1":"1 66412U 25258A   26145.05022706 -.00000089  00000+0  76015-4 0  9991","line2":"2 66412  50.0063  18.6174 0000940  53.1646 306.9312 13.29323767 26656","mean_motion":13.29323767,"eccentricity":9.4e-5,"inclination_deg":50.0063,"raan_deg":18.6174,"arg_perigee_deg":53.1646,"mean_anomaly_deg":306.9312,"bstar":7.6015e-5,"rev_number":2665,"period_min":108.32575447363,"perigee_km":1148.6074211037,"apogee_km":1150.02258208,"semimajor_km":7527.4520015919,"source":"CELESTRAK","updated_at":"2026-05-25T13:38:06.205121Z"}}